RH
100 100 100 74 57 61 51 45 44 45 57 46 48 66 65 79 92 58 30 24 26 21 28 50 42 36 79 80 89 100 100 100 100 100 100 100 100 100 100 100 100 100 97 90
100 100 100 73 74 81 71 55 52 39 38 47 41 69 70 98 87 52 34 30 27 26 20 31 41 36 33 61 83 99 100 100 100 100 100 100 100 100 100 90 86 100 98 100
100 100 100 82 77 90 59 87 55 44 27 45 42 54 84 99 64 55 33 25 36 37 26 22 38 41 41 46 47 85 89 99 100 100 100 100 100 100 100 100 98 100 100 100
100 100 100 100 91 90 69 47 82 54 31 32 37 45 76 100 65 63 41 26 27 37 28 21 22 40 38 48 60 69 83 99 100 100 100 100 100 100 100 100 100 100 100 100
90 100 100 93 98 65 99 85 100 59 41 36 36 37 100 100 71 66 48 33 27 35 36 26 23 30 45 38 63 73 84 81 96 100 100 100 100 100 100 100 100 100 100 100
78 100 100 100 100 100 100 93 92 49 55 42 41 36 100 81 84 73 58 44 35 27 36 30 25 25 36 44 39 57 61 85 100 100 100 100 100 100 100 100 100 100 100 100
98 100 100 100 100 100 100 72 37 46 71 57 60 37 100 60 92 82 76 69 47 32 34 33 26 27 27 37 42 38 47 56 67 100 100 100 100 100 100 99 100 97 100 100
89 94 99 84 77 69 56 33 30 94 100 75 82 44 47 39 59 100 81 94 73 48 31 36 36 26 27 30 32 46 43 78 95 74 90 100 100 100 99 100 100 98 89 100
99 96 72 83 79 71 71 48 88 65 95 100 86 61 56 46 40 88 90 100 90 73 35 36 41 40 32 27 28 31 40 43 71 100 100 99 99 95 94 82 87 100 95 94
65 70 69 64 61 60 55 70 93 100 100 100 88 86 73 50 49 70 97 100 100 83 56 43 44 46 52 45 29 26 28 32 41 64 93 100 100 100 100 100 100 98 90 78
100 100 100 100 100 100 94 100 100 100 94 79 99 97 88 66 54 63 100 100 100 87 81 63 46 39 47 49 44 29 25 25 26 32 45 72 95 100 100 100 94 92 80 72
90 100 100 100 100 100 100 100 100 71 75 98 100 96 94 76 62 73 100 100 100 100 96 83 58 39 38 48 42 41 29 25 23 28 31 46 47 48 65 79 78 79 62 73
84 87 80 76 86 87 72 81 89 91 75 83 99 99 100 95 68 58 100 94 100 100 100 93 75 57 41 41 46 42 43 28 26 28 34 30 30 33 44 50 55 63 60 69
85 90 73 65 98 93 95 96 100 100 100 100 100 100 100 94 72 57 67 95 99 100 100 100 93 71 51 44 49 43 64 39 29 29 30 40 39 39 45 50 62 73 76 76
91 98 100 100 100 100 100 100 100 100 99 86 95 86 99 100 92 71 57 74 99 98 100 100 100 87 73 57 50 49 54 64 35 29 28 27 34 48 57 60 62 76 81 81
100 100 96 100 100 100 100 100 94 96 95 94 79 68 80 98 91 72 71 76 100 100 100 100 100 94 88 68 59 58 62 71 70 42 28 29 30 34 40 48 48 48 61 74
98 94 93 89 82 77 84 100 92 95 87 74 75 88 100 93 100 88 76 87 79 100 100 100 100 100 96 86 71 88 84 75 67 60 44 31 26 28 32 34 39 48 59 74
94 85 90 99 99 88 99 100 100 92 92 88 90 99 99 94 95 93 83 69 89 99 100 100 100 100 100 94 94 71 77 100 96 80 69 52 38 34 31 33 36 50 82 96
73 78 76 71 72 69 78 85 95 99 92 92 79 79 87 100 94 98 100 97 68 69 87 100 100 100 100 97 98 81 80 80 100 100 95 82 67 60 55 44 42 47 59 70
46 46 47 51 45 53 66 53 45 43 48 77 68 67 84 88 96 99 100 99 100 100 89 89 95 100 100 100 100 97 98 90 90 100 100 100 90 78 69 72 52 48 49 52
25 26 27 26 28 33 40 26 24 26 30 36 41 37 59 75 84 89 100 100 84 100 100 89 81 96 100 100 100 100 100 95 84 91 100 100 100 96 79 81 85 78 66 55
23 22 22 21 22 24 23 22 19 15 19 24 24 31 26 36 70 88 100 100 100 82 69 97 100 92 97 100 100 100 86 95 100 100 100 100 100 100 100 100 98 98 99 99
15 14 12 12 13 13 13 12 11 12 13 16 22 23 24 26 38 87 100 100 100 100 94 95 100 100 100 94 99 100 92 100 88 100 94 98 100 100 100 100 100 100 100 100
17 18 15 13 18 14 11 12 9 9 10 13 17 22 24 27 31 49 72 95 100 100 100 100 100 100 89 89 100 100 100 93 99 100 100 95 100 100 100 100 100 100 100 100
23 24 22 19 20 16 19 11 14 11 9 12 17 21 24 25 29 38 48 65 83 91 100 100 100 100 100 100 100 100 100 100 100 92 91 100 100 100 100 100 100 100 100 100
32 31 23 25 20 21 21 15 15 15 10 13 18 23 26 26 31 30 33 38 55 66 90 100 100 100 99 100 100 100 100 100 100 100 100 100 100 100 100 100 100 100 100 100
Wind_Speed
44 41 48 32 26 25 27 26 26 25 25 28 20 25 27 31 31 39 37 27 27 28 20 20 22 24 36 41 68 61 58 54 54 59 56 57 59 60 57 54 52 55 59 60
44 46 47 35 30 30 32 32 31 25 25 27 23 23 26 29 30 34 38 38 28 32 26 17 17 19 32 46 50 66 70 64 61 62 60 64 66 68 68 68 65 63 62 61
47 55 48 43 35 36 35 36 31 29 27 26 25 26 27 28 29 31 39 36 35 38 33 22 17 19 24 36 46 55 57 57 67 63 60 66 66 67 67 68 66 66 64 62
41 51 52 47 39 42 38 35 34 32 24 26 28 30 31 26 28 29 36 36 36 36 35 26 20 15 21 29 35 40 43 48 58 51 62 63 70 73 71 69 64 66 68 71
42 53 51 48 48 42 52 38 38 35 31 23 21 24 27 21 28 26 31 33 37 35 33 30 21 15 13 25 33 33 36 44 47 49 55 55 60 64 67 67 64 65 66 66
50 53 46 49 50 44 52 43 41 40 36 26 27 23 27 25 25 25 26 30 35 31 31 31 23 18 16 16 25 32 33 39 42 45 47 51 55 56 60 62 63 64 66 63
54 55 52 51 52 48 52 46 42 44 40 31 29 22 29 34 28 29 24 26 30 32 29 26 25 21 17 17 19 27 34 38 43 45 43 46 48 49 53 59 52 58 55 51
54 53 51 49 49 50 47 46 43 45 44 39 34 23 34 35 37 30 25 24 22 31 23 28 25 24 21 16 19 23 29 35 35 38 43 44 47 45 45 44 47 49 51 46
54 52 51 50 52 50 50 46 55 46 45 39 35 31 35 36 35 36 29 28 21 25 24 25 27 26 26 25 18 20 28 32 40 38 37 41 42 40 41 42 43 41 42 43
56 51 53 52 49 49 50 54 52 46 43 47 42 40 36 38 36 37 32 28 27 24 24 25 28 25 27 27 26 23 23 30 34 44 44 41 39 39 39 41 43 43 44 42
59 57 58 59 56 56 55 55 54 56 55 52 50 41 41 41 41 35 35 29 32 29 26 26 28 28 30 25 26 25 26 26 32 36 43 51 48 46 46 44 44 44 46 48
71 68 68 69 71 71 69 67 67 62 59 54 46 38 43 45 42 38 38 31 35 33 29 27 28 29 33 32 26 26 27 29 30 30 36 41 48 52 59 57 54 59 55 52
75 72 73 73 75 74 70 68 66 64 60 54 47 41 51 48 46 41 42 39 37 34 32 28 30 32 34 37 31 27 27 26 28 27 32 39 41 40 39 43 51 56 56 56
72 73 75 73 75 77 73 71 70 69 63 58 53 50 52 54 51 50 44 44 36 36 36 36 35 36 33 33 33 29 29 27 25 27 26 32 36 39 41 40 40 44 47 49
77 76 75 76 76 79 76 74 75 74 72 70 63 58 50 56 51 51 46 46 43 39 37 41 41 35 33 31 32 35 31 33 30 28 27 25 29 34 37 39 40 43 45 46
83 82 84 84 83 82 81 80 79 80 78 74 71 64 59 55 57 53 47 47 46 46 42 46 44 40 38 33 31 37 38 34 36 32 28 25 21 26 34 39 42 44 45 46
86 84 84 84 89 90 85 82 88 86 85 81 77 71 66 62 58 56 52 49 47 50 49 45 46 44 41 36 30 30 37 40 40 41 36 34 30 25 23 25 32 38 40 45
94 93 94 91 93 93 84 91 94 95 89 86 80 76 73 68 63 61 56 54 52 51 51 53 50 51 46 39 36 34 34 40 41 41 41 40 38 34 32 31 33 35 38 41
93 94 93 92 96 96 95 97 99 103 94 94 92 86 79 76 73 58 61 61 60 57 55 54 49 53 50 44 41 41 40 38 44 42 42 37 34 34 33 33 35 38 41 44
84 85 86 87 87 90 91 89 91 93 82 88 89 80 78 76 70 63 71 69 67 64 61 60 57 51 53 49 45 45 42 42 43 46 48 45 43 40 39 36 39 40 43 45
77 76 78 81 81 82 86 79 81 80 80 82 83 79 78 74 70 69 71 74 71 71 70 66 62 62 58 62 58 47 50 50 47 48 50 53 55 53 50 45 46 46 50 52
72 72 72 75 75 76 80 76 78 73 74 73 69 80 73 73 74 75 74 75 76 73 67 74 74 69 69 64 68 64 57 55 49 52 54 54 58 59 59 59 58 57 56 57
66 69 70 69 69 69 68 69 71 74 71 64 65 73 69 69 71 78 82 81 80 79 77 71 75 77 74 75 68 71 65 61 56 55 60 61 61 63 61 61 64 65 66 64
61 64 62 64 60 62 63 65 67 68 62 60 62 64 69 69 70 75 78 82 84 85 85 81 76 74 72 71 66 72 71 64 60 60 62 65 64 65 66 66 67 67 68 69
57 57 54 53 53 53 60 57 65 66 54 56 60 63 66 68 69 73 76 80 81 81 81 82 81 78 74 72 71 74 75 72 69 70 67 68 71 70 69 70 71 70 71 75
58 56 54 51 51 52 55 52 58 62 54 53 59 60 66 63 69 66 68 73 78 79 81 82 81 82 79 75 75 78 79 81 78 76 75 75 76 78 76 75 77 78 80 82
Wind_Direction
252 255 248 252 271 269 281 285 285 296 292 294 296 316 332 337 341 340 346 353 355 346 311 273 258 253 221 223 215 224 221 226 229 228 226 227 228 231 235 241 248 257 261 268
252 252 249 254 261 264 273 283 283 292 298 291 289 306 325 326 334 333 337 349 5 354 337 306 285 269 236 221 224 226 226 234 237 234 237 233 233 236 241 245 251 260 266 268
247 247 253 252 256 261 272 280 285 283 297 284 290 305 315 316 323 327 329 335 357 2 347 318 304 275 248 231 226 226 232 235 235 238 241 241 241 242 243 248 254 260 267 273
239 249 252 249 255 259 268 274 279 273 292 282 281 298 305 308 313 327 331 337 342 357 352 338 313 300 258 241 233 232 232 233 237 239 242 244 244 246 250 253 259 262 268 270
234 245 248 252 255 260 264 271 270 272 277 285 295 302 295 295 305 320 324 328 337 352 348 343 331 307 292 254 236 235 236 240 238 239 241 243 245 248 251 255 260 262 265 268
242 244 246 253 254 254 260 262 266 272 272 278 291 308 285 293 300 308 318 324 328 342 352 344 343 331 304 277 254 241 237 236 239 243 242 243 245 247 250 254 259 259 262 266
234 238 242 246 252 252 257 258 262 267 268 266 286 308 282 294 293 296 308 314 321 330 349 349 343 351 337 307 278 258 248 245 240 237 241 243 244 244 245 250 255 260 261 265
236 240 244 245 248 250 254 259 263 266 263 261 284 282 282 300 290 286 295 294 309 318 325 336 345 343 346 331 304 278 259 244 244 245 246 248 248 248 253 257 257 259 263 260
229 237 241 246 249 253 254 255 257 260 263 262 276 279 285 293 299 284 285 284 294 307 313 326 342 349 344 336 317 294 276 261 247 244 244 243 244 246 245 251 255 259 263 267
238 243 250 254 258 258 253 251 254 252 251 267 276 279 277 282 299 287 276 278 284 294 305 314 326 331 332 336 326 308 290 275 267 251 248 248 249 251 250 250 253 259 263 264
240 239 243 245 248 248 247 248 249 258 268 273 274 271 276 276 294 280 268 271 272 284 293 301 311 325 329 332 329 320 301 288 271 266 259 253 251 251 251 251 253 253 255 260
239 238 241 248 250 250 253 255 260 264 265 265 261 260 264 268 285 278 261 263 264 276 279 289 300 309 320 323 322 321 322 298 285 271 260 260 258 256 255 255 255 257 260 259
241 242 243 247 251 253 255 257 261 261 260 260 255 261 259 262 280 278 261 257 260 269 267 278 291 302 311 314 318 319 322 316 298 282 267 262 264 263 263 263 261 263 266 267
244 244 244 245 251 254 253 255 256 257 257 256 259 261 260 260 272 280 263 260 256 263 263 269 283 295 300 305 306 312 313 316 312 295 285 277 270 267 269 268 268 269 270 269
242 244 246 248 250 252 253 253 255 255 257 259 259 263 255 257 266 276 276 259 258 257 260 258 278 285 289 295 299 305 310 308 311 310 294 286 276 269 270 270 266 269 271 271
242 243 245 246 249 251 254 257 260 261 261 260 263 266 263 260 266 269 263 261 259 259 258 258 265 275 276 284 292 301 301 301 305 311 307 298 294 286 276 274 270 266 268 271
242 243 245 246 249 251 253 259 259 260 261 262 263 266 264 264 261 262 259 254 255 256 258 261 261 265 269 280 283 283 292 297 300 304 308 309 302 294 283 290 282 276 275 277
246 246 244 245 247 250 252 256 258 260 260 262 261 261 263 261 259 260 259 258 252 253 255 254 260 260 266 270 275 279 283 282 287 295 300 305 306 306 309 304 302 297 286 281
249 250 250 249 249 249 248 248 250 253 255 257 260 259 258 257 259 259 258 257 257 250 250 250 257 257 258 264 270 276 285 281 281 279 286 288 289 293 294 293 287 285 278 276
250 251 251 251 251 253 253 250 250 251 251 254 254 250 252 252 253 253 248 248 246 247 247 247 251 261 259 257 265 266 276 275 278 278 277 277 278 279 284 280 278 278 277 273
248 249 249 249 248 250 251 252 251 251 248 249 250 251 248 248 250 249 249 252 248 245 251 250 248 252 260 255 262 262 271 281 275 276 276 278 278 276 280 275 273 277 282 285
247 248 248 249 249 248 250 250 252 250 247 245 244 246 244 239 240 244 245 245 247 252 250 249 251 252 255 257 259 261 268 271 271 271 271 274 275 277 278 278 277 276 277 279
242 244 245 247 246 246 246 248 249 250 250 245 241 243 242 239 233 236 241 241 244 250 255 253 252 253 256 258 262 259 270 271 269 266 272 272 271 271 273 276 278 278 278 279
244 245 244 244 246 247 246 243 246 248 245 242 235 236 239 239 237 233 237 240 242 245 249 253 253 256 259 260 259 259 268 267 263 268 268 269 268 273 274 275 275 275 276 277
243 245 244 245 244 242 243 240 243 247 244 240 232 230 237 237 236 236 237 238 241 243 246 250 252 254 258 260 262 261 264 264 263 267 269 267 265 265 268 271 273 274 274 275
244 244 244 242 243 241 242 238 239 242 240 237 234 230 233 235 236 237 240 241 239 242 244 247 251 254 256 258 259 260 261 266 264 265 265 264 264 267 264 266 269 271 274 276